Tracking 35275 objects as of 9-Sep-2026
HD Live streaming from Space Station
objects crossing your sky now

SPACEBEE-18


SPACEBEE-18 is no longer on orbit


NORAD ID: 46304
Int'l Code: 2020-061AJ
Launch date: September 3, 2020
Source: United States (US)
Launch site: FRENCH GUIANA (FRGUI)
Decay date: 2023-05-25
Your satellite tracking list
Your tracking list is empty




NASA's NSSDC Master Catalog

Two Line Element Set (TLE):
1 46304U 20061AJ  23142.93290751  .11928398  24888-5  21972-2 0  9993
2 46304  97.3790 222.6001 0020488 266.6659  93.2292 16.31644846150601
Source of the keplerian elements: AFSPC